Location: Unspecified
(47.6577°N, 23.5639°E)
Time: 18:19:31
(UTC+02:00)

ISS - Pass Details

Date: 01 February 2017
Orbit: 399 x 408 km, 51.6° (Epoch: 24 February)

Event Time Altitude Azimuth Distance (km) Brightness Sun altitude
Rises 20:06:43 0° 266° (W) 2,320 1.8 -27.0°
Reaches altitude 10° 20:08:51 10° 272° (W) 1,460 0.5 -27.4°
Enters shadow 20:10:04 20° 281° (W) 996 -0.6 -27.6°
